Time,TemperatureF,DewpointF,PressureIn,WindDirection,WindDirectionDegrees,WindSpeedMPH,WindSpeedGustMPH,Humidity,HourlyPrecipIn,Conditions,Clouds,dailyrainin,SoftwareType,DateUTC
2013-01-13 00:05:00,52.7,41.3,29.81,NNW,345,7.0,7.0,65,0.00,,,0.00,Wunderground v.1.15,2013-01-13 06:05:00,
2013-01-13 00:10:00,52.5,41.1,29.82,NW,316,4.0,17.0,65,0.00,,---,0.00,VWS V14.01,2013-01-13 06:10:00,
2013-01-13 00:15:00,52.4,41.0,29.82,NNE,33,8.0,17.0,65,0.00,,---,0.00,VWS V14.01,2013-01-13 06:15:00,
2013-01-13 00:20:00,52.2,40.8,29.82,NNW,345,6.0,17.0,65,0.00,,---,0.00,VWS V14.01,2013-01-13 06:20:00,
2013-01-13 00:25:00,52.0,40.6,29.82,NNW,328,4.0,17.0,65,0.00,,---,0.00,VWS V14.01,2013-01-13 06:25:00,
2013-01-13 00:30:00,51.8,40.0,29.82,NNE,18,3.0,10.0,64,0.00,,---,0.00,VWS V14.01,2013-01-13 06:30:00,
2013-01-13 00:35:00,51.4,39.7,29.83,WSW,243,8.0,14.0,64,0.00,,---,0.00,VWS V14.01,2013-01-13 06:35:00,
2013-01-13 00:40:00,51.1,39.4,29.83,NNE,24,9.0,18.0,64,0.00,,---,0.00,VWS V14.01,2013-01-13 06:40:00,
2013-01-13 00:45:00,50.8,39.5,29.83,North,8,3.0,18.0,65,0.00,,---,0.00,VWS V14.01,2013-01-13 06:45:00,
2013-01-13 00:50:00,50.7,39.4,29.83,NW,320,4.0,18.0,65,0.00,,---,0.00,VWS V14.01,2013-01-13 06:50:00,
2013-01-13 00:55:00,50.6,39.3,29.83,NW,309,9.0,18.0,65,0.00,,---,0.00,VWS V14.01,2013-01-13 06:55:00,
2013-01-13 01:00:00,50.4,38.7,29.83,North,360,2.0,8.0,64,0.00,,---,0.00,VWS V14.01,2013-01-13 07:00:00,
2013-01-13 01:05:00,50.2,38.5,29.83,NE,43,3.0,16.0,64,0.00,,---,0.00,VWS V14.01,2013-01-13 07:05:00,
2013-01-13 01:10:00,50.1,38.4,29.83,NNW,343,7.0,16.0,64,0.00,,---,0.00,VWS V14.01,2013-01-13 07:10:00,
2013-01-13 01:15:00,49.9,37.8,29.83,North,349,7.0,16.0,63,0.00,,---,0.00,VWS V14.01,2013-01-13 07:15:00,
2013-01-13 01:20:00,49.6,37.5,29.84,NW,323,6.0,16.0,63,0.00,,---,0.00,VWS V14.01,2013-01-13 07:20:00,
2013-01-13 01:25:00,49.3,37.2,29.84,NNW,347,8.0,16.0,63,0.00,,---,0.00,VWS V14.01,2013-01-13 07:25:00,
2013-01-13 01:30:00,49.1,37.5,29.84,NNW,335,4.0,10.0,64,0.00,,---,0.00,VWS V14.01,2013-01-13 07:30:00,
2013-01-13 01:35:00,49.1,37.5,29.84,NNE,29,3.0,14.0,64,0.00,,---,0.00,VWS V14.01,2013-01-13 07:35:00,
2013-01-13 01:40:00,49.2,37.6,29.84,NNW,333,10.0,14.0,64,0.00,,---,0.00,VWS V14.01,2013-01-13 07:40:00,
2013-01-13 01:45:00,49.1,37.1,29.84,North,351,5.0,15.0,63,0.00,,---,0.00,VWS V14.01,2013-01-13 07:45:00,
2013-01-13 01:50:00,49.0,37.0,29.84,North,11,7.0,16.0,63,0.00,,---,0.00,VWS V14.01,2013-01-13 07:50:00,
2013-01-13 01:55:00,48.9,36.9,29.84,ESE,117,7.0,16.0,63,0.00,,---,0.00,VWS V14.01,2013-01-13 07:55:00,
2013-01-13 02:00:00,48.8,36.8,29.84,NNE,17,5.0,5.0,63,0.00,,---,0.00,VWS V14.01,2013-01-13 08:00:00,
2013-01-13 02:05:00,48.7,37.1,29.85,WNW,295,5.0,14.0,64,0.00,,---,0.00,VWS V14.01,2013-01-13 08:05:00,
2013-01-13 02:10:00,48.7,37.1,29.85,East,87,2.0,14.0,64,0.00,,---,0.00,VWS V14.01,2013-01-13 08:10:00,
2013-01-13 02:15:00,48.5,36.1,29.86,NNW,327,3.0,14.0,62,0.00,,---,0.00,VWS V14.01,2013-01-13 08:15:00,
2013-01-13 02:20:00,48.4,36.8,29.86,NNW,334,3.0,14.0,64,0.00,,---,0.00,VWS V14.01,2013-01-13 08:20:00,
2013-01-13 02:25:00,48.4,36.4,29.86,NW,307,1.0,14.0,63,0.00,,---,0.00,VWS V14.01,2013-01-13 08:25:00,
2013-01-13 02:30:00,48.2,35.4,29.86,NNE,19,6.0,6.0,61,0.00,,---,0.00,VWS V14.01,2013-01-13 08:30:00,
2013-01-13 02:35:00,47.8,34.6,29.86,NNW,340,5.0,15.0,60,0.00,,---,0.00,VWS V14.01,2013-01-13 08:35:00,
2013-01-13 02:40:00,47.5,34.7,29.88,NNE,30,1.0,15.0,61,0.00,,---,0.00,VWS V14.01,2013-01-13 08:40:00,
2013-01-13 02:45:00,47.3,34.5,29.88,ENE,65,9.0,15.0,61,0.00,,---,0.00,VWS V14.01,2013-01-13 08:45:00,
2013-01-13 02:50:00,47.0,34.3,29.88,NNE,12,6.0,15.0,61,0.00,,---,0.00,VWS V14.01,2013-01-13 08:50:00,
2013-01-13 02:55:00,46.9,34.6,29.88,WNW,283,3.0,15.0,62,0.00,,---,0.00,VWS V14.01,2013-01-13 08:55:00,
2013-01-13 03:00:00,46.8,34.5,29.88,ESE,107,9.0,9.0,62,0.00,,---,0.00,VWS V14.01,2013-01-13 09:00:00,
2013-01-13 03:05:00,46.7,34.4,29.88,ESE,108,4.0,12.0,62,0.00,,---,0.00,VWS V14.01,2013-01-13 09:05:00,
2013-01-13 03:10:00,46.5,34.2,29.88,NNW,340,5.0,12.0,62,0.00,,---,0.00,VWS V14.01,2013-01-13 09:10:00,
2013-01-13 03:15:00,46.5,34.6,29.88,North,9,5.0,12.0,63,0.00,,---,0.00,VWS V14.01,2013-01-13 09:15:00,
2013-01-13 03:20:00,46.4,34.5,29.88,ENE,59,9.0,12.0,63,0.00,,---,0.00,VWS V14.01,2013-01-13 09:20:00,
2013-01-13 03:25:00,46.3,34.4,29.89,SE,134,0.0,13.0,63,0.00,,---,0.00,VWS V14.01,2013-01-13 09:25:00,
2013-01-13 03:30:00,46.3,34.0,29.88,East,86,6.0,9.0,62,0.00,,---,0.00,VWS V14.01,2013-01-13 09:30:00,
2013-01-13 03:35:00,46.3,34.0,29.89,NNW,338,5.0,10.0,62,0.00,,---,0.00,VWS V14.01,2013-01-13 09:35:00,
2013-01-13 03:40:00,46.0,33.7,29.89,NW,312,2.0,15.0,62,0.00,,---,0.00,VWS V14.01,2013-01-13 09:40:00,
2013-01-13 03:45:00,45.8,33.5,29.89,North,354,6.0,18.0,62,0.00,,---,0.00,VWS V14.01,2013-01-13 09:45:00,
2013-01-13 03:50:00,45.7,33.8,29.90,NNW,336,10.0,18.0,63,0.00,,---,0.00,VWS V14.01,2013-01-13 09:50:00,
2013-01-13 03:55:00,45.6,33.3,29.90,NNE,15,8.0,18.0,62,0.00,,---,0.00,VWS V14.01,2013-01-13 09:55:00,
2013-01-13 04:00:00,45.6,33.8,29.91,NNE,19,5.0,5.0,63,0.00,,---,0.00,VWS V14.01,2013-01-13 10:00:00,
2013-01-13 04:05:00,45.5,33.7,29.91,NE,35,3.0,10.0,63,0.00,,---,0.00,VWS V14.01,2013-01-13 10:05:00,
2013-01-13 04:10:00,45.4,33.6,29.91,NNE,19,2.0,10.0,63,0.00,,---,0.00,VWS V14.01,2013-01-13 10:10:00,
2013-01-13 04:15:00,45.3,33.5,29.90,SE,131,1.0,10.0,63,0.00,,---,0.00,VWS V14.01,2013-01-13 10:15:00,
2013-01-13 04:20:00,45.1,33.3,29.90,NNE,29,4.0,12.0,63,0.00,,---,0.00,VWS V14.01,2013-01-13 10:20:00,
2013-01-13 04:25:00,45.0,33.2,29.91,NNW,336,6.0,12.0,63,0.00,,---,0.00,VWS V14.01,2013-01-13 10:25:00,
2013-01-13 04:30:00,44.8,33.0,29.90,NE,39,6.0,9.0,63,0.00,,---,0.00,VWS V14.01,2013-01-13 10:30:00,
2013-01-13 04:35:00,44.7,32.9,29.91,NNW,336,6.0,13.0,63,0.00,,---,0.00,VWS V14.01,2013-01-13 10:35:00,
2013-01-13 04:40:00,44.7,33.3,29.91,NE,52,8.0,13.0,64,0.00,,---,0.00,VWS V14.01,2013-01-13 10:40:00,
2013-01-13 04:45:00,44.6,33.2,29.91,NE,41,4.0,13.0,64,0.00,,---,0.00,VWS V14.01,2013-01-13 10:45:00,
2013-01-13 04:50:00,44.5,32.7,29.91,NE,40,6.0,14.0,63,0.00,,---,0.00,VWS V14.01,2013-01-13 10:50:00,
2013-01-13 04:55:00,44.4,32.6,29.91,West,263,6.0,18.0,63,0.00,,---,0.00,VWS V14.01,2013-01-13 10:55:00,
2013-01-13 05:00:00,44.4,32.6,29.91,West,276,4.0,6.0,63,0.00,,---,0.00,VWS V14.01,2013-01-13 11:00:00,
2013-01-13 05:05:00,44.3,32.5,29.91,North,6,2.0,11.0,63,0.00,,---,0.00,VWS V14.01,2013-01-13 11:05:00,
2013-01-13 05:10:00,44.3,32.5,29.92,NNW,330,8.0,15.0,63,0.00,,---,0.00,VWS V14.01,2013-01-13 11:10:00,
2013-01-13 05:15:00,44.3,32.5,29.92,SE,139,1.0,15.0,63,0.00,,---,0.00,VWS V14.01,2013-01-13 11:15:00,
2013-01-13 05:20:00,44.3,32.5,29.92,NNE,30,6.0,15.0,63,0.00,,---,0.00,VWS V14.01,2013-01-13 11:20:00,
2013-01-13 05:25:00,44.3,32.5,29.92,North,6,2.0,16.0,63,0.00,,---,0.00,VWS V14.01,2013-01-13 11:25:00,
2013-01-13 05:30:00,44.3,32.5,29.93,NNW,344,3.0,7.0,63,0.00,,---,0.00,VWS V14.01,2013-01-13 11:30:00,
2013-01-13 05:35:00,44.3,32.5,29.93,NNW,330,3.0,8.0,63,0.00,,---,0.00,VWS V14.01,2013-01-13 11:35:00,
2013-01-13 05:40:00,44.3,32.5,29.94,NNW,346,4.0,8.0,63,0.00,,---,0.00,VWS V14.01,2013-01-13 11:40:00,
2013-01-13 05:45:00,44.1,32.3,29.94,NNW,328,4.0,10.0,63,0.00,,---,0.00,VWS V14.01,2013-01-13 11:45:00,
2013-01-13 05:50:00,44.1,31.9,29.94,SW,222,4.0,12.0,62,0.00,,---,0.00,VWS V14.01,2013-01-13 11:50:00,
2013-01-13 05:55:00,44.0,31.8,29.95,NW,326,3.0,14.0,62,0.00,,---,0.00,VWS V14.01,2013-01-13 11:55:00,
2013-01-13 06:00:00,44.0,31.8,29.95,NE,43,2.0,4.0,62,0.00,,---,0.00,VWS V14.01,2013-01-13 12:00:00,
2013-01-13 06:05:00,44.0,31.8,29.95,NNW,328,4.0,9.0,62,0.00,,---,0.00,VWS V14.01,2013-01-13 12:05:00,
2013-01-13 06:10:00,44.0,31.8,29.95,ENE,63,5.0,14.0,62,0.00,,---,0.00,VWS V14.01,2013-01-13 12:10:00,
2013-01-13 06:15:00,43.9,31.3,29.95,NE,41,4.0,14.0,61,0.00,,---,0.00,VWS V14.01,2013-01-13 12:15:00,
2013-01-13 06:20:00,43.9,31.7,29.96,NW,316,3.0,14.0,62,0.00,,---,0.00,VWS V14.01,2013-01-13 12:20:00,
2013-01-13 06:25:00,43.9,31.3,29.96,ESE,121,2.0,14.0,61,0.00,,---,0.00,VWS V14.01,2013-01-13 12:25:00,
2013-01-13 06:30:00,43.8,31.2,29.96,West,265,5.0,5.0,61,0.00,,---,0.00,VWS V14.01,2013-01-13 12:30:00,
2013-01-13 06:35:00,43.7,31.1,29.97,NNW,330,5.0,10.0,61,0.00,,---,0.00,VWS V14.01,2013-01-13 12:35:00,
2013-01-13 06:40:00,43.7,31.5,29.97,NNE,25,6.0,10.0,62,0.00,,---,0.00,VWS V14.01,2013-01-13 12:40:00,
2013-01-13 06:45:00,43.7,31.5,29.98,NE,35,3.0,10.0,62,0.00,,---,0.00,VWS V14.01,2013-01-13 12:45:00,
2013-01-13 06:50:00,43.6,31.5,29.98,WNW,297,2.0,10.0,62,0.00,,---,0.00,VWS V14.01,2013-01-13 12:50:00,
2013-01-13 06:55:00,43.5,31.4,29.99,NNE,16,2.0,10.0,62,0.00,,---,0.00,VWS V14.01,2013-01-13 12:55:00,
2013-01-13 07:00:00,43.5,31.0,29.99,NE,38,9.0,10.0,61,0.00,,---,0.00,VWS V14.01,2013-01-13 13:00:00,
2013-01-13 07:05:00,43.3,30.8,29.99,NE,45,6.0,12.0,61,0.00,,---,0.00,VWS V14.01,2013-01-13 13:05:00,
2013-01-13 07:10:00,43.3,30.8,29.99,West,281,5.0,12.0,61,0.00,,---,0.00,VWS V14.01,2013-01-13 13:10:00,
2013-01-13 07:15:00,43.2,30.7,30.00,NE,46,7.0,12.0,61,0.00,,---,0.00,VWS V14.01,2013-01-13 13:15:00,
2013-01-13 07:20:00,43.1,30.6,30.00,NE,37,1.0,12.0,61,0.00,,---,0.00,VWS V14.01,2013-01-13 13:20:00,
2013-01-13 07:25:00,43.2,31.1,30.01,NNW,330,4.0,12.0,62,0.00,,---,0.00,VWS V14.01,2013-01-13 13:25:00,
2013-01-13 07:30:00,43.2,31.1,30.01,North,9,1.0,5.0,62,0.00,,---,0.00,VWS V14.01,2013-01-13 13:30:00,
2013-01-13 07:35:00,43.1,30.6,30.02,NNW,334,2.0,11.0,61,0.00,,---,0.00,VWS V14.01,2013-01-13 13:35:00,
2013-01-13 07:40:00,43.0,30.5,30.02,NNW,333,6.0,12.0,61,0.00,,---,0.00,VWS V14.01,2013-01-13 13:40:00,
2013-01-13 07:45:00,43.0,30.9,30.02,NW,321,2.0,12.0,62,0.00,,---,0.00,VWS V14.01,2013-01-13 13:45:00,
2013-01-13 07:50:00,43.0,30.9,30.02,WNW,294,4.0,12.0,62,0.00,,---,0.00,VWS V14.01,2013-01-13 13:50:00,
2013-01-13 07:55:00,43.0,30.9,30.03,NNE,30,4.0,12.0,62,0.00,,---,0.00,VWS V14.01,2013-01-13 13:55:00,
2013-01-13 08:00:00,43.1,31.4,30.04,NNE,13,2.0,6.0,63,0.00,,---,0.00,VWS V14.01,2013-01-13 14:00:00,
2013-01-13 08:05:00,43.1,31.0,30.04,SW,228,3.0,9.0,62,0.00,,---,0.00,VWS V14.01,2013-01-13 14:05:00,
2013-01-13 08:10:00,43.1,31.4,30.04,NNW,333,4.0,9.0,63,0.00,,---,0.00,VWS V14.01,2013-01-13 14:10:00,
2013-01-13 08:15:00,43.1,31.4,30.05,NE,56,6.0,11.0,63,0.00,,---,0.00,VWS V14.01,2013-01-13 14:15:00,
2013-01-13 08:20:00,43.1,31.4,30.05,SW,232,1.0,11.0,63,0.00,,---,0.00,VWS V14.01,2013-01-13 14:20:00,
2013-01-13 08:25:00,43.2,31.5,30.05,North,355,6.0,11.0,63,0.00,,---,0.00,VWS V14.01,2013-01-13 14:25:00,
2013-01-13 08:30:00,43.3,31.6,30.05,NNW,335,5.0,5.0,63,0.00,,---,0.00,VWS V14.01,2013-01-13 14:30:00,
2013-01-13 08:35:00,43.2,31.5,30.05,SSE,148,4.0,11.0,63,0.00,,---,0.00,VWS V14.01,2013-01-13 14:35:00,
2013-01-13 08:40:00,43.1,31.4,30.05,NW,318,6.0,12.0,63,0.00,,---,0.00,VWS V14.01,2013-01-13 14:40:00,
2013-01-13 08:45:00,43.1,31.4,30.06,NNE,23,4.0,13.0,63,0.00,,---,0.00,VWS V14.01,2013-01-13 14:45:00,
2013-01-13 08:50:00,43.5,31.8,30.06,WNW,302,3.0,13.0,63,0.00,,---,0.00,VWS V14.01,2013-01-13 14:50:00,
2013-01-13 08:55:00,43.9,31.7,30.06,NNW,348,3.0,13.0,62,0.00,,---,0.00,VWS V14.01,2013-01-13 14:55:00,
2013-01-13 09:00:00,44.4,31.8,30.07,NNW,346,2.0,2.0,61,0.00,,---,0.00,VWS V14.01,2013-01-13 15:00:00,
2013-01-13 09:05:00,44.7,31.7,30.07,NE,56,3.0,8.0,60,0.00,,---,0.00,VWS V14.01,2013-01-13 15:05:00,
2013-01-13 09:10:00,44.7,31.3,30.07,NNW,329,8.0,12.0,59,0.00,,---,0.00,VWS V14.01,2013-01-13 15:10:00,
2013-01-13 09:15:00,44.4,31.0,30.07,SW,222,2.0,14.0,59,0.00,,---,0.00,VWS V14.01,2013-01-13 15:15:00,
2013-01-13 09:20:00,44.4,31.4,30.07,NNW,335,3.0,14.0,60,0.00,,---,0.00,VWS V14.01,2013-01-13 15:20:00,
2013-01-13 09:25:00,44.9,31.9,30.07,NE,51,6.0,14.0,60,0.00,,---,0.00,VWS V14.01,2013-01-13 15:25:00,
2013-01-13 09:30:00,45.1,31.6,30.08,NNW,333,9.0,9.0,59,0.00,,---,0.00,VWS V14.01,2013-01-13 15:30:00,
2013-01-13 09:35:00,44.8,31.4,30.09,NW,323,8.0,12.0,59,0.00,,---,0.00,VWS V14.01,2013-01-13 15:35:00,
2013-01-13 09:40:00,45.0,31.1,30.09,North,11,4.0,12.0,58,0.00,,---,0.00,VWS V14.01,2013-01-13 15:40:00,
2013-01-13 09:45:00,44.8,30.9,30.09,NNW,345,5.0,12.0,58,0.00,,---,0.00,VWS V14.01,2013-01-13 15:45:00,
2013-01-13 09:49:00,44.6,30.8,30.10,NW,323,4.0,13.0,58,0.00,,---,0.00,VWS V14.01,2013-01-13 15:49:00,
2013-01-13 09:54:00,44.7,30.9,30.10,NNE,33,3.0,13.0,58,0.00,,---,0.00,VWS V14.01,2013-01-13 15:54:00,
2013-01-13 09:59:00,45.3,31.4,30.10,North,360,6.0,8.0,58,0.00,,---,0.00,VWS V14.01,2013-01-13 15:59:00,
2013-01-13 10:04:00,45.8,31.5,30.10,NNW,344,8.0,12.0,57,0.00,,---,0.00,VWS V14.01,2013-01-13 16:04:00,
2013-01-13 10:09:00,46.3,31.5,30.10,NNE,19,6.0,12.0,56,0.00,,---,0.00,VWS V14.01,2013-01-13 16:09:00,
2013-01-13 10:14:00,46.3,30.6,30.10,NNE,19,4.0,12.0,54,0.00,,---,0.00,VWS V14.01,2013-01-13 16:14:00,
2013-01-13 10:19:00,46.8,31.0,30.11,NNW,338,14.0,14.0,54,0.00,,---,0.00,VWS V14.01,2013-01-13 16:19:00,
2013-01-13 10:24:00,46.9,30.7,30.10,North,9,14.0,14.0,53,0.00,,---,0.00,VWS V14.01,2013-01-13 16:24:00,
2013-01-13 10:29:00,47.0,30.8,30.10,North,1,8.0,8.0,53,0.00,,---,0.00,VWS V14.01,2013-01-13 16:29:00,
2013-01-13 10:34:00,47.4,30.7,30.10,NW,317,3.0,11.0,52,0.00,,---,0.00,VWS V14.01,2013-01-13 16:34:00,
2013-01-13 10:39:00,47.5,30.8,30.11,NNW,346,7.0,12.0,52,0.00,,---,0.00,VWS V14.01,2013-01-13 16:39:00,
2013-01-13 10:44:00,47.5,30.8,30.10,ENE,65,3.0,12.0,52,0.00,,---,0.00,VWS V14.01,2013-01-13 16:44:00,
2013-01-13 10:49:00,48.0,31.2,30.10,North,356,5.0,13.0,52,0.00,,---,0.00,VWS V14.01,2013-01-13 16:49:00,
2013-01-13 10:54:00,48.4,31.6,30.10,NW,315,1.0,13.0,52,0.00,,---,0.00,VWS V14.01,2013-01-13 16:54:00,
2013-01-13 10:59:00,48.7,30.9,30.10,NNW,346,5.0,12.0,50,0.00,,---,0.00,VWS V14.01,2013-01-13 16:59:00,
2013-01-13 11:04:00,48.7,30.9,30.10,NNE,16,13.0,13.0,50,0.00,,---,0.00,VWS V14.01,2013-01-13 17:04:00,
2013-01-13 11:09:00,48.8,31.0,30.10,West,271,7.0,13.0,50,0.00,,---,0.00,VWS V14.01,2013-01-13 17:09:00,
2013-01-13 11:14:00,48.8,31.0,30.09,NNW,340,1.0,13.0,50,0.00,,---,0.00,VWS V14.01,2013-01-13 17:14:00,
2013-01-13 11:19:00,49.3,31.5,30.09,North,356,4.0,13.0,50,0.00,,---,0.00,VWS V14.01,2013-01-13 17:19:00,
2013-01-13 11:24:00,49.5,31.6,30.09,NW,321,6.0,13.0,50,0.00,,---,0.00,VWS V14.01,2013-01-13 17:24:00,
2013-01-13 11:29:00,49.6,31.2,30.09,ESE,117,2.0,4.0,49,0.00,,---,0.00,VWS V14.01,2013-01-13 17:29:00,
2013-01-13 11:34:00,50.0,31.6,30.09,WNW,299,6.0,8.0,49,0.00,,---,0.00,VWS V14.01,2013-01-13 17:34:00,
2013-01-13 11:39:00,49.9,31.5,30.08,NNW,342,6.0,10.0,49,0.00,,---,0.00,VWS V14.01,2013-01-13 17:39:00,
2013-01-13 11:44:00,50.1,31.7,30.08,NNW,335,5.0,10.0,49,0.00,,---,0.00,VWS V14.01,2013-01-13 17:44:00,
2013-01-13 11:49:00,50.3,31.9,30.08,NNW,336,2.0,13.0,49,0.00,,---,0.00,VWS V14.01,2013-01-13 17:49:00,
2013-01-13 11:54:00,50.4,32.0,30.08,NNE,13,8.0,13.0,49,0.00,,---,0.00,VWS V14.01,2013-01-13 17:54:00,
2013-01-13 11:59:00,50.8,31.8,30.08,ENE,63,2.0,2.0,48,0.00,,---,0.00,VWS V14.01,2013-01-13 17:59:00,
2013-01-13 12:04:00,50.8,31.8,30.07,NE,52,6.0,9.0,48,0.00,,---,0.00,VWS V14.01,2013-01-13 18:04:00,
2013-01-13 12:09:00,51.0,32.0,30.07,NNE,30,4.0,19.0,48,0.00,,---,0.00,VWS V14.01,2013-01-13 18:09:00,
2013-01-13 12:14:00,51.1,32.1,30.07,NNE,26,8.0,19.0,48,0.00,,---,0.00,VWS V14.01,2013-01-13 18:14:00,
2013-01-13 12:19:00,51.8,32.8,30.07,NNE,13,11.0,19.0,48,0.00,,---,0.00,VWS V14.01,2013-01-13 18:19:00,
2013-01-13 12:24:00,51.6,32.6,30.06,WNW,283,0.0,19.0,48,0.00,,---,0.00,VWS V14.01,2013-01-13 18:24:00,
2013-01-13 12:29:00,52.0,31.9,30.06,North,352,9.0,9.0,46,0.00,,---,0.00,VWS V14.01,2013-01-13 18:29:00,
2013-01-13 12:34:00,52.2,32.1,30.06,NW,308,4.0,9.0,46,0.00,,---,0.00,VWS V14.01,2013-01-13 18:34:00,
2013-01-13 12:39:00,52.6,31.9,30.06,NNW,343,8.0,13.0,45,0.00,,---,0.00,VWS V14.01,2013-01-13 18:39:00,
2013-01-13 12:44:00,52.5,32.3,30.06,North,11,8.0,15.0,46,0.00,,---,0.00,VWS V14.01,2013-01-13 18:44:00,
2013-01-13 12:49:00,52.7,32.0,30.06,NE,34,6.0,15.0,45,0.00,,---,0.00,VWS V14.01,2013-01-13 18:49:00,
2013-01-13 12:54:00,53.0,31.7,30.06,NNW,338,2.0,15.0,44,0.00,,---,0.00,VWS V14.01,2013-01-13 18:54:00,
2013-01-13 12:59:00,53.4,32.0,30.06,NNW,338,3.0,5.0,44,0.00,,---,0.00,VWS V14.01,2013-01-13 18:59:00,
2013-01-13 13:04:00,53.5,31.6,30.06,ENE,57,9.0,12.0,43,0.00,,---,0.00,VWS V14.01,2013-01-13 19:04:00,
2013-01-13 13:09:00,53.7,31.2,30.06,ENE,65,4.0,12.0,42,0.00,,---,0.00,VWS V14.01,2013-01-13 19:09:00,
2013-01-13 13:14:00,54.2,32.2,30.05,North,356,10.0,13.0,43,0.00,,---,0.00,VWS V14.01,2013-01-13 19:14:00,
2013-01-13 13:19:00,53.8,31.9,30.05,NE,34,3.0,14.0,43,0.00,,---,0.00,VWS V14.01,2013-01-13 19:19:00,
2013-01-13 13:24:00,53.5,31.6,30.06,NE,44,4.0,14.0,43,0.00,,---,0.00,VWS V14.01,2013-01-13 19:24:00,
2013-01-13 13:29:00,53.7,31.2,30.05,NNW,335,5.0,14.0,42,0.00,,---,0.00,VWS V14.01,2013-01-13 19:29:00,
2013-01-13 13:34:00,53.6,31.7,30.05,NNE,14,6.0,14.0,43,0.00,,---,0.00,VWS V14.01,2013-01-13 19:34:00,
2013-01-13 13:39:00,54.0,32.0,30.05,ENE,72,5.0,14.0,43,0.00,,---,0.00,VWS V14.01,2013-01-13 19:39:00,
2013-01-13 13:44:00,53.8,31.3,30.05,ENE,71,5.0,14.0,42,0.00,,---,0.00,VWS V14.01,2013-01-13 19:44:00,
2013-01-13 13:49:00,54.3,32.3,30.05,NNW,340,2.0,14.0,43,0.00,,---,0.00,VWS V14.01,2013-01-13 19:49:00,
2013-01-13 13:54:00,54.3,31.7,30.05,NNE,27,8.0,14.0,42,0.00,,---,0.00,VWS V14.01,2013-01-13 19:54:00,
2013-01-13 13:59:00,54.6,32.0,30.05,NE,34,4.0,14.0,42,0.00,,---,0.00,VWS V14.01,2013-01-13 19:59:00,
2013-01-13 14:04:00,54.8,32.2,30.05,NNE,26,9.0,14.0,42,0.00,,---,0.00,VWS V14.01,2013-01-13 20:04:00,
2013-01-13 14:09:00,54.8,32.2,30.04,North,360,11.0,14.0,42,0.00,,---,0.00,VWS V14.01,2013-01-13 20:09:00,
2013-01-13 14:14:00,54.8,31.6,30.04,NNW,348,3.0,14.0,41,0.00,,---,0.00,VWS V14.01,2013-01-13 20:14:00,
2013-01-13 14:19:00,55.1,31.2,30.05,WNW,302,5.0,14.0,40,0.00,,---,0.00,VWS V14.01,2013-01-13 20:19:00,
2013-01-13 14:24:00,55.0,31.1,30.04,NNE,27,4.0,15.0,40,0.00,,---,0.00,VWS V14.01,2013-01-13 20:24:00,
2013-01-13 14:29:00,54.7,31.5,30.04,WSW,238,5.0,15.0,41,0.00,,---,0.00,VWS V14.01,2013-01-13 20:29:00,
2013-01-13 14:34:00,54.9,31.0,30.04,NE,46,3.0,13.0,40,0.00,,---,0.00,VWS V14.01,2013-01-13 20:34:00,
2013-01-13 14:39:00,55.1,31.2,30.04,NNE,29,11.0,15.0,40,0.00,,---,0.00,VWS V14.01,2013-01-13 20:39:00,
2013-01-13 14:44:00,54.8,31.6,30.04,NE,53,1.0,15.0,41,0.00,,---,0.00,VWS V14.01,2013-01-13 20:44:00,
2013-01-13 14:49:00,55.1,31.2,30.05,NE,37,3.0,15.0,40,0.00,,---,0.00,VWS V14.01,2013-01-13 20:49:00,
2013-01-13 14:54:00,55.3,31.4,30.05,ENE,69,9.0,15.0,40,0.00,,---,0.00,VWS V14.01,2013-01-13 20:54:00,
2013-01-13 14:59:00,54.9,31.7,30.05,NNW,339,4.0,15.0,41,0.00,,---,0.00,VWS V14.01,2013-01-13 20:59:00,
2013-01-13 15:04:00,55.0,31.8,30.05,NW,321,6.0,15.0,41,0.00,,---,0.00,VWS V14.01,2013-01-13 21:04:00,
2013-01-13 15:09:00,55.0,30.5,30.05,North,5,10.0,15.0,39,0.00,,---,0.00,VWS V14.01,2013-01-13 21:09:00,
2013-01-13 15:14:00,54.7,31.5,30.05,East,79,12.0,15.0,41,0.00,,---,0.00,VWS V14.01,2013-01-13 21:14:00,
2013-01-13 15:19:00,54.6,30.8,30.05,NNE,13,8.0,15.0,40,0.00,,---,0.00,VWS V14.01,2013-01-13 21:19:00,
2013-01-13 15:24:00,54.6,31.4,30.05,WNW,302,1.0,15.0,41,0.00,,---,0.00,VWS V14.01,2013-01-13 21:24:00,
2013-01-13 15:29:00,54.9,31.7,30.06,NNW,340,3.0,15.0,41,0.00,,---,0.00,VWS V14.01,2013-01-13 21:29:00,
2013-01-13 15:34:00,54.6,31.4,30.06,NW,326,4.0,12.0,41,0.00,,---,0.00,VWS V14.01,2013-01-13 21:34:00,
2013-01-13 15:39:00,54.4,31.2,30.06,NW,316,3.0,12.0,41,0.00,,---,0.00,VWS V14.01,2013-01-13 21:39:00,
2013-01-13 15:44:00,54.3,32.3,30.06,ENE,57,4.0,12.0,43,0.00,,---,0.00,VWS V14.01,2013-01-13 21:44:00,
2013-01-13 15:49:00,54.5,31.9,30.06,NNE,30,11.0,12.0,42,0.00,,---,0.00,VWS V14.01,2013-01-13 21:49:00,
2013-01-13 15:54:00,54.4,31.8,30.06,NE,36,7.0,12.0,42,0.00,,---,0.00,VWS V14.01,2013-01-13 21:54:00,
2013-01-13 15:59:00,54.2,31.6,30.05,North,11,11.0,12.0,42,0.00,,---,0.00,VWS V14.01,2013-01-13 21:59:00,
2013-01-13 16:04:00,54.0,31.5,30.05,NNW,329,2.0,13.0,42,0.00,,---,0.00,VWS V14.01,2013-01-13 22:04:00,
2013-01-13 16:09:00,53.7,31.8,30.06,ENE,77,4.0,13.0,43,0.00,,---,0.00,VWS V14.01,2013-01-13 22:09:00,
2013-01-13 16:14:00,53.6,32.2,30.06,East,89,5.0,13.0,44,0.00,,---,0.00,VWS V14.01,2013-01-13 22:14:00,
2013-01-13 16:19:00,53.7,32.3,30.06,NNE,27,2.0,13.0,44,0.00,,---,0.00,VWS V14.01,2013-01-13 22:19:00,
2013-01-13 16:24:00,53.6,31.7,30.07,NNW,347,1.0,13.0,43,0.00,,---,0.00,VWS V14.01,2013-01-13 22:24:00,
2013-01-13 16:29:00,53.8,32.4,30.07,NNE,22,4.0,13.0,44,0.00,,---,0.00,VWS V14.01,2013-01-13 22:29:00,
2013-01-13 16:34:00,53.6,32.8,30.07,North,360,5.0,11.0,45,0.00,,---,0.00,VWS V14.01,2013-01-13 22:34:00,
2013-01-13 16:39:00,53.3,32.5,30.08,NE,43,6.0,11.0,45,0.00,,---,0.00,VWS V14.01,2013-01-13 22:39:00,
2013-01-13 16:44:00,53.2,32.4,30.07,West,276,3.0,11.0,45,0.00,,---,0.00,VWS V14.01,2013-01-13 22:44:00,
2013-01-13 16:49:00,53.1,32.3,30.07,NNW,343,4.0,11.0,45,0.00,,---,0.00,VWS V14.01,2013-01-13 22:49:00,
2013-01-13 16:54:00,52.8,32.6,30.07,East,81,3.0,11.0,46,0.00,,---,0.00,VWS V14.01,2013-01-13 22:54:00,
2013-01-13 16:59:00,52.7,33.0,30.07,NNE,13,3.0,11.0,47,0.00,,---,0.00,VWS V14.01,2013-01-13 22:59:00,
2013-01-13 17:04:00,52.6,33.0,30.07,East,85,6.0,8.0,47,0.00,,---,0.00,VWS V14.01,2013-01-13 23:04:00,
2013-01-13 17:09:00,52.4,32.8,30.08,NNE,18,3.0,8.0,47,0.00,,---,0.00,VWS V14.01,2013-01-13 23:09:00,
2013-01-13 17:14:00,52.3,32.7,30.08,NNE,27,4.0,8.0,47,0.00,,---,0.00,VWS V14.01,2013-01-13 23:14:00,
2013-01-13 17:19:00,52.3,32.7,30.08,NE,44,3.0,9.0,47,0.00,,---,0.00,VWS V14.01,2013-01-13 23:19:00,
2013-01-13 17:24:00,52.0,32.9,30.08,NE,54,2.0,9.0,48,0.00,,---,0.00,VWS V14.01,2013-01-13 23:24:00,
2013-01-13 17:29:00,51.6,33.1,30.08,NE,43,5.0,9.0,49,0.00,,---,0.00,VWS V14.01,2013-01-13 23:29:00,
2013-01-13 17:34:00,51.5,33.0,30.08,NE,48,2.0,7.0,49,0.00,,---,0.00,VWS V14.01,2013-01-13 23:34:00,
2013-01-13 17:39:00,51.2,33.2,30.08,NNE,19,1.0,9.0,50,0.00,,---,0.00,VWS V14.01,2013-01-13 23:39:00,
2013-01-13 17:44:00,51.0,33.0,30.08,NNE,22,6.0,9.0,50,0.00,,---,0.00,VWS V14.01,2013-01-13 23:44:00,
2013-01-13 17:49:00,50.6,32.7,30.08,WNW,297,4.0,9.0,50,0.00,,---,0.00,VWS V14.01,2013-01-13 23:49:00,
2013-01-13 17:54:00,50.4,33.0,30.08,NNE,23,5.0,10.0,51,0.00,,---,0.00,VWS V14.01,2013-01-13 23:54:00,
2013-01-13 17:59:00,50.1,32.7,30.09,ENE,70,1.0,10.0,51,0.00,,---,0.00,VWS V14.01,2013-01-13 23:59:00,
2013-01-13 18:04:00,49.8,32.9,30.09,NNE,20,3.0,10.0,52,0.00,,---,0.00,VWS V14.01,2013-01-14 00:04:00,
2013-01-13 18:09:00,49.5,32.6,30.09,NNE,20,5.0,11.0,52,0.00,,---,0.00,VWS V14.01,2013-01-14 00:09:00,
2013-01-13 18:14:00,49.2,32.3,30.09,North,4,3.0,11.0,52,0.00,,---,0.00,VWS V14.01,2013-01-14 00:14:00,
2013-01-13 18:19:00,48.9,32.5,30.09,NE,56,7.0,11.0,53,0.00,,---,0.00,VWS V14.01,2013-01-14 00:19:00,
2013-01-13 18:24:00,48.7,32.3,30.09,NW,321,6.0,11.0,53,0.00,,---,0.00,VWS V14.01,2013-01-14 00:24:00,
2013-01-13 18:29:00,48.5,32.2,30.10,NW,326,3.0,11.0,53,0.00,,---,0.00,VWS V14.01,2013-01-14 00:29:00,
2013-01-13 18:34:00,48.2,32.3,30.10,NNE,16,4.0,8.0,54,0.00,,---,0.00,VWS V14.01,2013-01-14 00:34:00,
2013-01-13 18:39:00,48.0,32.2,30.10,NNE,18,6.0,11.0,54,0.00,,---,0.00,VWS V14.01,2013-01-14 00:39:00,
2013-01-13 18:44:00,47.9,32.5,30.10,North,356,1.0,11.0,55,0.00,,---,0.00,VWS V14.01,2013-01-14 00:44:00,
2013-01-13 18:49:00,47.6,32.2,30.10,NE,42,2.0,11.0,55,0.00,,---,0.00,VWS V14.01,2013-01-14 00:49:00,
2013-01-13 18:54:00,47.4,32.5,30.10,WNW,300,3.0,11.0,56,0.00,,---,0.00,VWS V14.01,2013-01-14 00:54:00,
2013-01-13 18:59:00,47.2,32.3,30.11,NE,34,5.0,11.0,56,0.00,,---,0.00,VWS V14.01,2013-01-14 00:59:00,
2013-01-13 19:04:00,47.1,32.7,30.10,NNE,22,1.0,5.0,57,0.00,,---,0.00,VWS V14.01,2013-01-14 01:04:00,
2013-01-13 19:09:00,46.7,32.3,30.10,NNW,344,5.0,8.0,57,0.00,,---,0.00,VWS V14.01,2013-01-14 01:09:00,
2013-01-13 19:14:00,46.6,32.2,30.10,NNE,30,2.0,8.0,57,0.00,,---,0.00,VWS V14.01,2013-01-14 01:14:00,
2013-01-13 19:19:00,46.4,32.0,30.10,NE,44,2.0,8.0,57,0.00,,---,0.00,VWS V14.01,2013-01-14 01:19:00,
2013-01-13 19:24:00,46.2,31.8,30.10,NE,50,1.0,8.0,57,0.00,,---,0.00,VWS V14.01,2013-01-14 01:24:00,
2013-01-13 19:29:00,46.0,31.6,30.11,NNE,24,3.0,8.0,57,0.00,,---,0.00,VWS V14.01,2013-01-14 01:29:00,
2013-01-13 19:34:00,45.9,31.5,30.10,NNW,346,7.0,8.0,57,0.00,,---,0.00,VWS V14.01,2013-01-14 01:34:00,
2013-01-13 19:39:00,45.7,31.4,30.10,WNW,289,3.0,9.0,57,0.00,,---,0.00,VWS V14.01,2013-01-14 01:39:00,
2013-01-13 19:44:00,45.6,31.3,30.10,NNW,342,4.0,9.0,57,0.00,,---,0.00,VWS V14.01,2013-01-14 01:44:00,
2013-01-13 19:49:00,45.5,30.7,30.10,NE,36,3.0,9.0,56,0.00,,---,0.00,VWS V14.01,2013-01-14 01:49:00,
2013-01-13 19:54:00,45.5,30.7,30.10,ENE,70,3.0,9.0,56,0.00,,---,0.00,VWS V14.01,2013-01-14 01:54:00,
2013-01-13 19:59:00,45.4,30.2,30.11,NNE,27,4.0,9.0,55,0.00,,---,0.00,VWS V14.01,2013-01-14 01:59:00,
2013-01-13 20:04:00,45.3,30.1,30.11,East,94,2.0,8.0,55,0.00,,---,0.00,VWS V14.01,2013-01-14 02:04:00,
2013-01-13 20:09:00,45.2,30.0,30.11,ENE,77,5.0,8.0,55,0.00,,---,0.00,VWS V14.01,2013-01-14 02:09:00,
2013-01-13 20:14:00,45.1,30.4,30.12,WNW,298,3.0,8.0,56,0.00,,---,0.00,VWS V14.01,2013-01-14 02:14:00,
2013-01-13 20:19:00,44.9,30.2,30.11,North,356,2.0,8.0,56,0.00,,---,0.00,VWS V14.01,2013-01-14 02:19:00,
2013-01-13 20:24:00,44.8,30.1,30.11,WNW,292,3.0,8.0,56,0.00,,---,0.00,VWS V14.01,2013-01-14 02:24:00,
2013-01-13 20:29:00,44.6,29.9,30.11,NE,41,4.0,8.0,56,0.00,,---,0.00,VWS V14.01,2013-01-14 02:29:00,
2013-01-13 20:34:00,44.3,30.0,30.11,SSE,148,2.0,6.0,57,0.00,,---,0.00,VWS V14.01,2013-01-14 02:34:00,
2013-01-13 20:39:00,44.0,30.2,30.11,North,356,6.0,7.0,58,0.00,,---,0.00,VWS V14.01,2013-01-14 02:39:00,
2013-01-13 20:44:00,43.9,30.5,30.12,NNE,13,3.0,7.0,59,0.00,,---,0.00,VWS V14.01,2013-01-14 02:44:00,
2013-01-13 20:49:00,43.6,30.6,30.12,North,5,1.0,7.0,60,0.00,,---,0.00,VWS V14.01,2013-01-14 02:49:00,
2013-01-13 20:55:00,43.3,30.4,30.12,North,353,2.0,7.0,60,0.00,,---,0.00,VWS V14.01,2013-01-14 02:55:00,
2013-01-13 21:00:00,43.2,29.9,30.12,NNE,15,2.0,5.0,59,0.00,,---,0.00,VWS V14.01,2013-01-14 03:00:00,
2013-01-13 21:05:00,43.2,29.9,30.12,West,269,1.0,8.0,59,0.00,,---,0.00,VWS V14.01,2013-01-14 03:05:00,
2013-01-13 21:10:00,43.0,30.1,30.13,NNE,18,2.0,8.0,60,0.00,,---,0.00,VWS V14.01,2013-01-14 03:10:00,
2013-01-13 21:15:00,42.9,30.0,30.13,North,349,2.0,8.0,60,0.00,,---,0.00,VWS V14.01,2013-01-14 03:15:00,
2013-01-13 21:20:00,42.7,29.8,30.13,North,6,2.0,8.0,60,0.00,,---,0.00,VWS V14.01,2013-01-14 03:20:00,
2013-01-13 21:25:00,42.7,29.8,30.13,NE,46,1.0,8.0,60,0.00,,---,0.00,VWS V14.01,2013-01-14 03:25:00,
2013-01-13 21:30:00,42.5,29.6,30.14,NNE,30,4.0,4.0,60,0.00,,---,0.00,VWS V14.01,2013-01-14 03:30:00,
2013-01-13 21:35:00,42.3,29.8,30.14,ENE,66,2.0,5.0,61,0.00,,---,0.00,VWS V14.01,2013-01-14 03:35:00,
2013-01-13 21:40:00,42.2,29.7,30.14,NE,38,2.0,5.0,61,0.00,,---,0.00,VWS V14.01,2013-01-14 03:40:00,
2013-01-13 21:45:00,42.1,29.6,30.14,ENE,61,2.0,5.0,61,0.00,,---,0.00,VWS V14.01,2013-01-14 03:45:00,
2013-01-13 21:50:00,42.0,29.5,30.15,NE,34,5.0,5.0,61,0.00,,---,0.00,VWS V14.01,2013-01-14 03:50:00,
2013-01-13 21:55:00,41.9,29.0,30.15,NE,46,2.0,5.0,60,0.00,,---,0.00,VWS V14.01,2013-01-14 03:55:00,
2013-01-13 22:00:00,41.7,29.3,30.15,NE,51,2.0,3.0,61,0.00,,---,0.00,VWS V14.01,2013-01-14 04:00:00,
2013-01-13 22:05:00,41.7,28.9,30.15,ENE,61,3.0,4.0,60,0.00,,---,0.00,VWS V14.01,2013-01-14 04:05:00,
2013-01-13 22:10:00,41.5,28.7,30.14,NE,46,3.0,5.0,60,0.00,,---,0.00,VWS V14.01,2013-01-14 04:10:00,
2013-01-13 22:15:00,41.5,28.7,30.15,NNE,33,4.0,9.0,60,0.00,,---,0.00,VWS V14.01,2013-01-14 04:15:00,
2013-01-13 22:20:00,41.4,29.0,30.14,ENE,70,4.0,9.0,61,0.00,,---,0.00,VWS V14.01,2013-01-14 04:20:00,
2013-01-13 22:25:00,41.1,29.1,30.13,NNE,27,2.0,9.0,62,0.00,,---,0.00,VWS V14.01,2013-01-14 04:25:00,
2013-01-13 22:30:00,41.0,29.0,30.14,NNW,347,2.0,4.0,62,0.00,,---,0.00,VWS V14.01,2013-01-14 04:30:00,
2013-01-13 22:35:00,40.8,29.2,30.14,ENE,62,5.0,7.0,63,0.00,,---,0.00,VWS V14.01,2013-01-14 04:35:00,
2013-01-13 22:40:00,40.8,28.8,30.14,ENE,61,5.0,9.0,62,0.00,,---,0.00,VWS V14.01,2013-01-14 04:40:00,
2013-01-13 22:45:00,40.9,28.9,30.14,ENE,61,4.0,9.0,62,0.00,,---,0.00,VWS V14.01,2013-01-14 04:45:00,
2013-01-13 22:50:00,40.9,28.9,30.13,NE,37,5.0,11.0,62,0.00,,---,0.00,VWS V14.01,2013-01-14 04:50:00,
2013-01-13 22:55:00,40.8,28.8,30.13,NNW,347,5.0,11.0,62,0.00,,---,0.00,VWS V14.01,2013-01-14 04:55:00,
2013-01-13 23:00:00,40.6,29.0,30.13,ENE,59,8.0,8.0,63,0.00,,---,0.00,VWS V14.01,2013-01-14 05:00:00,
2013-01-13 23:05:00,40.5,28.5,30.13,NNE,15,7.0,12.0,62,0.00,,---,0.00,VWS V14.01,2013-01-14 05:05:00,
2013-01-13 23:10:00,40.4,28.4,30.13,NNW,335,5.0,12.0,62,0.00,,---,0.00,VWS V14.01,2013-01-14 05:10:00,
2013-01-13 23:15:00,40.3,28.3,30.14,NE,40,3.0,12.0,62,0.00,,---,0.00,VWS V14.01,2013-01-14 05:15:00,
2013-01-13 23:20:00,40.3,28.3,30.13,ENE,60,10.0,12.0,62,0.00,,---,0.00,VWS V14.01,2013-01-14 05:20:00,
2013-01-13 23:25:00,40.2,28.2,30.12,NE,56,6.0,12.0,62,0.00,,---,0.00,VWS V14.01,2013-01-14 05:25:00,
2013-01-13 23:30:00,40.1,27.8,30.12,ENE,63,5.0,7.0,61,0.00,,---,0.00,VWS V14.01,2013-01-14 05:30:00,
2013-01-13 23:35:00,40.0,27.6,30.12,NNE,22,3.0,12.0,61,0.00,,---,0.00,VWS V14.01,2013-01-14 05:35:00,
2013-01-13 23:40:00,40.0,27.6,30.12,NE,48,7.0,12.0,61,0.00,,---,0.00,VWS V14.01,2013-01-14 05:40:00,
2013-01-13 23:45:00,40.0,27.6,30.12,ENE,63,2.0,14.0,61,0.00,,---,0.00,VWS V14.01,2013-01-14 05:45:00,
2013-01-13 23:50:00,39.9,27.6,30.12,NE,39,3.0,14.0,61,0.00,,---,0.00,VWS V14.01,2013-01-14 05:50:00,
2013-01-13 23:55:00,39.8,27.1,30.13,ENE,60,5.0,14.0,60,0.00,,---,0.00,VWS V14.01,2013-01-14 05:55:00,